Regional Weather Roundup
Issued by NWS

Home | Current Version | Previous Version | Text Only | Print | Product List | Glossary Off
Versions: 1 2 3 4 5 6 7 8 9 10 11 12 13 14 15 16 17 18 19 20 21 22 23 24 25 26 27 28 29 30 31 32 33 34 35 36 37 38 39 40 41 42 43 44 45 46 47 48 49 50

000
ASUS43 KMPX 171301
RWRMN
WEATHER ROUNDUP FOR MINNESOTA
NATIONAL WEATHER SERVICE TWIN CITIES/CHANHASSEN MN
800 AM CDT THU AUG 17 2017


NOTE: "FAIR" INDICATES FEW OR NO CLOUDS BELOW 12,000 FEET WITH NO
SIGNIFICANT WEATHER AND/OR OBSTRUCTIONS TO VISIBILITY. N/A MEANS
CURRENT SKY AND/OR WEATHER CONDITIONS ARE NOT AVAILABLE.

MNZ060>063-068>070-171400-
   Twin Cities Metro

CITY           SKY/WX    TMP DP  RH WIND       PRES   REMARKS
TWIN CITIES    CLOUDY    67  64  90 NW10G20   29.53R
ST PAUL        CLOUDY    68  66  93 NW7       29.53R
CRYSTAL        CLOUDY    67  63  87 NW5       29.53R
BLAINE         PTSUNNY   68  68 100 N6        29.54R
LAKEVILLE      CLOUDY    64  64 100 NW7       29.53R
EDEN PRAIRIE   CLOUDY    68  66  93 NW6       29.53R
SOUTH ST PAUL  CLOUDY    66  66 100 NW7       29.52R
LAKE ELMO      CLOUDY    66  66 100 N5        29.53R
$$
MNZ001>005-007-008-013>017-022>024-027-028-171400-
   Northwest Minnesota

CITY           SKY/WX    TMP DP  RH WIND       PRES   REMARKS
BEMIDJI        CLOUDY    60  59  97 N8        29.76R
HALLOCK        SUNNY     55  54  94 CALM      29.83S
ROSEAU         CLOUDY    59  54  82 N7        29.83R HAZE
WARROAD        CLOUDY    61  57  88 VRB7      29.82S
CROOKSTON      PTSUNNY   63  61  94 N10       29.83R
FOSSTON        CLOUDY    59  59 100 N12G20    29.80R
DETROIT LAKES  CLOUDY    61  61 100 N13G18    29.78R
MOORHEAD       CLOUDY    63  59  88 N15G22    29.81R
PARK RAPIDS    CLOUDY    63  61  93 N10       29.74R
MAHNOMEN       CLOUDY    61  60  97 N14       29.78R
$$
MNZ006-009>011-018-025>026-171400-
   North Central Minnesota

CITY           SKY/WX    TMP DP  RH WIND       PRES   REMARKS
BAUDETTE       CLOUDY    60  59  96 NE8       29.79S
FLAG ISLAND    CLOUDY    61  57  88 CALM      29.82S
INTL FALLS     LGT RAIN  59  57  93 NE8       29.78R
WASKISH        CLOUDY    61  59  94 N7        29.77S
BIG FORK       RAIN      61  57  88 N6        29.74S
LONGVILLE      LGT RAIN  61  61 100 N7        29.72R
GRAND RAPIDS   RAIN      59  58  96 N8        29.73R
CRANE LAKE     RAIN      57  57 100 N3        29.77F
ORR            LGT RAIN  57  55  94 CALM      29.72F
COOK           RAIN      59  57  94 N6        29.73F
WALKER         LGT RAIN  60  59  97 N7        29.74R
$$
MNZ012-019>021-037-171400-
   Northeast Minnesota

CITY           SKY/WX    TMP DP  RH WIND       PRES   REMARKS
DULUTH         DRIZZLE   59  59 100 NE15G24   29.64R FOG
ELY            RAIN      59  57  94 NE8       29.71F
HIBBING        HVY RAIN  58  57  97 N9        29.70S FOG
EVELETH        HVY RAIN  59  56  89 N9        29.71S
DULUTH HARBOR  CLOUDY    63  61  94 NE25G37   29.62S FOG
GRAND MARAIS     N/A     65  60  84 NE12G18   29.67F
$$
MNZ029>031-032-039>041-046>048-054>057-064-171400-
   West Central Minnesota

CITY           SKY/WX    TMP DP  RH WIND       PRES   REMARKS
FERGUS FALLS   CLOUDY    63  63 100 N14G22    29.76R FOG
WHEATON        CLOUDY    63  59  88 NW14      29.80R
MORRIS         CLOUDY    63  63 100 NW18G26   29.74R FOG
ALEXANDRIA     CLOUDY    65  65 100 NW12      29.73R
ELBOW LAKE     CLOUDY    62  62 100 NW16G22   29.75R FOG
WADENA         CLOUDY    63  63 100 N9G18     29.73R
GLENWOOD       CLOUDY    64  63  94 NW14      29.71S
APPLETON       CLOUDY    63  61  94 NW15G25   29.75R
BENSON         CLOUDY    64  63  94 N15       29.74R
ORTONVILLE     CLOUDY    63  59  88 MISG      29.78R
MADISON        RAIN      64  64 100 NW16G23   29.77R
WILLMAR        CLOUDY    66  64  94 NW16      29.70R
$$
MNZ033>034-036-042>043-049>051-058-059-171400-
   Central Minnesota

CITY           SKY/WX    TMP DP  RH WIND       PRES   REMARKS
ST CLOUD       HVY RAIN  62  62 100 N14G28    29.61R FOG
SAUK CENTRE    CLOUDY    64  62  93 NW14G20   29.69R
PAYNESVILLE    DRIZZLE   64  63  96 NW13G18   29.67R
AITKIN         LGT RAIN  59  57  94 N13       29.66R
PINE RIVER     RAIN      61  61 100 N10       29.74R
BRAINERD       LGT RAIN  62  61  96 N10       29.68R FOG
STAPLES        CLOUDY    61  61 100 N9        29.71R
LONG PRAIRIE   CLOUDY    61  61 100 NW13G20   29.69R
LITTLE FALLS   LGT RAIN  61  59  94 N7        29.66R
LITCHFIELD     RAIN      64  64 100 NW16G22   29.64R
BUFFALO        DRIZZLE   63  61  93 NW13G22   29.60R
MAPLE LAKE     CLOUDY    64  63  97 NW18G24   29.61R FOG
HUTCHINSON     LGT RAIN  65  64  97 NW16G26   29.62S
$$
MNZ037-044-045-052-053-171400-
   East Central Minnesota

CITY           SKY/WX    TMP DP  RH WIND       PRES   REMARKS
PRINCETON      DRIZZLE   64  63  94 NW10      29.59R
MORA           DRIZZLE   59  59 100 N6        29.61R
RUSH CITY      RAIN      66  64  96 N6        29.57R
MOOSE LAKE     CLOUDY    61  59  94 N8        29.60R
HINCKLEY       CLOUDY    63  63 100 N7        29.59R
CLOQUET        DRIZZLE   61  57  88 N7        29.64R
MCGREGOR       CLOUDY    59  59 100 N10G17    29.66R
$$
MNZ071>073-080-081-089-090-097-098-171400-
   Southwest Minnesota

CITY           SKY/WX    TMP DP  RH WIND       PRES   REMARKS
MONTEVIDEO     CLOUDY    63  63 100 N12G26    29.75R
GRANITE FALLS  CLOUDY    65  64  95 W15G23    29.76R
CANBY          CLOUDY    63  60  90 W16G23    29.80R
MARSHALL       CLOUDY    62  61  96 NW17      29.77R
REDWOOD FALLS  CLOUDY    66  62  87 NW18G26   29.70R
OLIVIA         CLOUDY    64  61  88 NW14G25   29.69R
PIPESTONE      CLOUDY    63  59  88 NW15G23   29.82R
WINDOM         PTSUNNY   64  63  94 W15G22    29.76R
WORTHINGTON    CLOUDY    63  61  93 W16       29.80R
JACKSON        CLOUDY    63  63 100 W15       29.77R FOG
TRACY          CLOUDY    64  63  98 NW16      29.77R
SLAYTON        CLOUDY    62  58  84 NW17      29.79R
$$
MNZ065>067-074>077-082>085-091>093-171400-
   South Central Minnesota

CITY           SKY/WX    TMP DP  RH WIND       PRES   REMARKS
MANKATO        LGT RAIN  65  63  93 NW21      29.61R
NEW ULM        CLOUDY    66  63  88 NW21      29.66R
ST JAMES       CLOUDY    66  63  88 W18G28    29.70R
FAIRMONT       CLOUDY    66  63  90 W18       29.72R
GLENCOE        CLOUDY    66  65  97 NW18G31   29.59R
FARIBAULT      CLOUDY    64  63  94 W17G23    29.57R
OWATONNA       DRIZZLE   64  63  94 W17G26    29.59R
WASECA         DRIZZLE   63  61  94 W13G23    29.62R
ALBERT LEA     DRIZZLE   66  66 100 W10G20    29.64R
$$
MNZ078>079-086>088-094>096-171400-
   Southeast Minnesota

CITY           SKY/WX    TMP DP  RH WIND       PRES   REMARKS
ROCHESTER      LGT RAIN  64  63  96 SW21G30   29.59R FOG
RED WING       CLOUDY    66  64  94 W14G20    29.46R
STANTON        CLOUDY    67  64  91 W10G17    29.52R
DODGE CENTER   DRIZZLE   64  63  94 SW18      29.58R
WINONA         CLOUDY    70  63  78 SW8G17    29.56F
AUSTIN         DRIZZLE   64  63  94 W14G22    29.63R
PRESTON        CLOUDY    65  61  85 SW16G26   29.62S
$$
ABBREVIATIONS USED IN REMARKS
   TC - TEMPERATURES IN CELSIUS
  WCI - WIND CHILL INDEX
   HX - HEAT INDEX
  VSB - VISIBILITY
$$




USA.gov is the U.S. government's official web portal to all federal, state and local government web resources and services.